Location: Göttingen
(51.5413°N, 9.9158°E)
Time: 17:55:50
(UTC+02:00)

BEESAT - Pass Details

Date: 07 July 2022
Orbit: 700 x 706 km, 98.6° (Epoch: 13 August)

Event Time Altitude Azimuth Distance (km) Brightness Sun altitude
Rises 23:15:01 0° 7° (N) 3,110 ? -10.6°
Reaches altitude 10° 23:17:36 10° 354° (N) 2,187 ? -10.8°
Maximum altitude 23:21:26 25° 301° (WNW) 1,430 ? -11.1°
Drops below altitude 10° 23:25:15 10° 247° (WSW) 2,178 ? -11.4°
Sets 23:27:50 0° 234° (SW) 3,093 ? -11.6°
